Weather History for Annapolis Naval Academy, MD

Change the Weather History Date:

Tuesday, June 25, 2013

  Actual Average (KBWI) Record (KBWI)
Temperature  
Mean Temperature 81 °F 75 °F  
Max Temperature 91 °F 86 °F 99 °F (1997)
Min Temperature 71 °F 65 °F 53 °F (1979)
Degree Days  
Heating Degree Days 0 0  
Month to date heating degree days 13  
Since 1 June heating degree days 13  
Since 1 July heating degree days 4762  
Cooling Degree Days 16 10  
Month to date cooling degree days 185  
Year to date cooling degree days 269  
Since 1 June cooling degree days 185  
Growing Degree Days 31 (Base 50)    
Moisture  
Dew Point 70 °F    
Average Humidity 71    
Maximum Humidity 93    
Minimum Humidity 50    
Precipitation  
Precipitation 0.10 in 0.10 in 2.75 in (2006)
Month to date precipitation 2.90  
Year to date precipitation 19.93  
Snow  
Snow 0.00 in 0.00 in - ()
Month to date snowfall 0.0  
Since 1 July snowfall 20.1  
Snow Depth -    
Sea Level Pressure  
Sea Level Pressure 29.98 in    
Wind  
Wind Speed 4 mph (West)    
Max Wind Speed 26 mph    
Max Gust Speed 38 mph    
Visibility 10 miles    
Events Rain    
T = Trace of Precipitation, MM = Missing Value Source: NWS Daily Summary

Daily Weather History Graph

Daily Weather History Graph

Search for Another Location

Airport:

Trip Planner

Search our weather history database for the weather conditions in past years. The results will help you decide how hot, cold, wet, or windy it might be!

Date:

Astronomy

Jun. 25, 2013 Rise Set
Actual Time 5:41 AM EDT 8:35 PM EDT
Civil Twilight 5:09 AM EDT 9:07 PM EDT
Nautical Twilight 4:29 AM EDT 9:48 PM EDT
Astronomical Twilight 3:42 AM EDT 10:34 PM EDT
Moon 10:21 PM EDT (6/25) 8:17 AM EDT (6/25)
Length of Visible Light 15h 58m
Length of Day
14h 53m
Waning Gibbous, 93% of the Moon is Illuminated
Jun 25
Waning Gibbous
Jun 30
Last Quarter
Jul 8
New
Jul 15
First Quarter
Jul 22
Full

Hourly Weather History & Observations

Time (EDT) Temp. Heat Index Dew Point Humidity Pressure Visibility Wind Dir Wind Speed Gust Speed Precip Events Conditions
12:54 AM 73.0 °F - 69.1 °F 87% 30.04 in 10.0 mi Calm Calm - N/A   Clear
1:54 AM 73.0 °F - 70.0 °F 90% 30.04 in 10.0 mi South 3.5 mph - N/A   Clear
2:54 AM 73.0 °F - 70.0 °F 90% 30.02 in 10.0 mi Calm Calm - N/A   Clear
3:54 AM 72.0 °F - 70.0 °F 93% 30.01 in 10.0 mi Calm Calm - N/A   Clear
4:54 AM 72.0 °F - 70.0 °F 93% 30.01 in 10.0 mi Calm Calm - N/A   Clear
5:54 AM 71.1 °F - 69.1 °F 93% 30.01 in 10.0 mi Calm Calm - N/A   Clear
6:54 AM 73.0 °F - 70.0 °F 90% 30.01 in 10.0 mi SW 3.5 mph - N/A   Clear
7:54 AM 75.9 °F - 71.1 °F 85% 30.02 in 10.0 mi Variable 3.5 mph - N/A   Clear
8:54 AM 80.1 °F 83.6 °F 71.1 °F 74% 30.02 in 10.0 mi WSW 5.8 mph - N/A   Clear
9:54 AM 82.0 °F 86.3 °F 71.1 °F 69% 30.02 in 10.0 mi West 8.1 mph - N/A   Clear
10:54 AM 84.0 °F 89.0 °F 71.1 °F 65% 30.02 in 10.0 mi WNW 10.4 mph - N/A   Clear
11:54 AM 86.0 °F 91.5 °F 71.1 °F 61% 30.02 in 10.0 mi North 3.5 mph - N/A   Clear
12:54 PM 88.0 °F 91.4 °F 68.0 °F 51% 30.00 in 10.0 mi West 5.8 mph - N/A   Clear
1:54 PM 89.1 °F 92.9 °F 68.0 °F 50% 29.99 in 10.0 mi West 8.1 mph - N/A   Clear
2:54 PM 91.0 °F 96.6 °F 70.0 °F 50% 29.96 in 10.0 mi Variable 3.5 mph - N/A   Clear
3:54 PM 90.0 °F 94.5 °F 69.1 °F 50% 29.96 in 10.0 mi NW 6.9 mph - N/A   Partly Cloudy
4:54 PM 90.0 °F 95.4 °F 70.0 °F 52% 29.94 in 10.0 mi NW 3.5 mph - N/A   Clear
5:54 PM 91.0 °F 98.2 °F 72.0 °F 53% 29.91 in 9.0 mi WSW 8.1 mph - N/A   Clear
6:54 PM 89.1 °F 95.0 °F 71.1 °F 55% 29.91 in 10.0 mi Variable 6.9 mph - N/A   Clear
7:54 PM 87.1 °F 92.8 °F 71.1 °F 59% 29.90 in 10.0 mi SSW 3.5 mph - N/A   Clear
8:54 PM 84.9 °F 90.1 °F 71.1 °F 63% 29.92 in 10.0 mi WSW 4.6 mph - N/A   Clear
9:54 PM 84.0 °F 89.0 °F 71.1 °F 65% 29.94 in 10.0 mi WSW 4.6 mph - N/A   Clear
10:54 PM 82.9 °F 87.5 °F 71.1 °F 67% 29.94 in 10.0 mi WSW 4.6 mph - N/A   Clear
11:09 PM 82.0 °F 83.8 °F 64.9 °F 56% 29.98 in 10.0 mi NNW 26.5 mph 38.0 mph N/A   Squalls
11:22 PM 77.0 °F - 66.9 °F 71% 29.99 in 8.0 mi NNW 24.2 mph 38.0 mph 0.00 in Rain Light Rain
11:35 PM 73.0 °F - 69.1 °F 87% 29.97 in 2.5 mi NW 9.2 mph - 0.10 in Rain Rain
11:42 PM 73.0 °F - 70.0 °F 90% 29.96 in 8.0 mi Variable 4.6 mph - 0.10 in Rain Light Rain
11:54 PM 71.1 °F - 68.0 °F 90% 29.96 in 10.0 mi WSW 3.5 mph - 0.10 in Rain Light Rain